Weather reports worldwide

Advertisment
Murcia/Alcantarilla, Spain (8429): temperature & dewpoint: 06.12.2018 00:00:00 - 12.12.2018 00:00:00 (CET)Murcia/Alcantarilla, Spain (8429): wind speed: 06.12.2018 00:00:00 - 12.12.2018 00:00:00 (CET)Murcia/Alcantarilla, Spain (8429): wind direction: 06.12.2018 00:00:00 - 12.12.2018 00:00:00 (CET)Murcia/Alcantarilla, Spain (8429): reduced air pressure: 06.12.2018 00:00:00 - 12.12.2018 00:00:00 (CET)Murcia/Alcantarilla, Spain (8429): visibility: 06.12.2018 00:00:00 - 12.12.2018 00:00:00 (CET)
Date & Time tt [°C] td [°C] ff [km/h] ff [kn] dd ppp [hPa] vv [km]
12.12.2018 00:00:00 - - - - - - -
11.12.2018 23:00:00 - - - - - - -
11.12.2018 22:00:00 - - - - - - -
11.12.2018 21:00:00 - - - - - - -
11.12.2018 20:00:00 - - - - - - -
11.12.2018 19:00:00 12,7 10,9 9 5 SW 1021,9 20
11.12.2018 18:00:00 - - - - - - -
11.12.2018 17:00:00 - - - - - - -
11.12.2018 16:00:00 16,7 10,5 4 2 N 1021,4 20
11.12.2018 15:00:00 - - - - - - -
11.12.2018 14:00:00 - - - - - - -
11.12.2018 13:00:00 13,9 9,1 4 2 N 1023,8 12
11.12.2018 12:00:00 - - - - - - -
11.12.2018 11:00:00 - - - - - - -
11.12.2018 10:00:00 6,8 6,8 0 0 N 1025,3 5
11.12.2018 09:00:00 - - - - - - -
11.12.2018 08:00:00 - - - - - - -
11.12.2018 07:00:00 4,3 4,0 0 0 N 1025,3 12
11.12.2018 06:00:00 - - - - - - -
11.12.2018 05:00:00 - - - - - - -
11.12.2018 04:00:00 - - - - - - -
11.12.2018 03:00:00 - - - - - - -
11.12.2018 02:00:00 - - - - - - -
11.12.2018 01:00:00 - - - - - - -
11.12.2018 00:00:00 - - - - - - -
10.12.2018 23:00:00 - - - - - - -
10.12.2018 22:00:00 - - - - - - -
10.12.2018 21:00:00 - - - - - - -
10.12.2018 20:00:00 - - - - - - -
10.12.2018 19:00:00 15,0 11,6 5 3 ENE 1027,1 30
10.12.2018 18:00:00 - - - - - - -
10.12.2018 17:00:00 - - - - - - -
10.12.2018 16:00:00 18,6 12,1 2 1 N 1026,6 30
10.12.2018 15:00:00 - - - - - - -
10.12.2018 14:00:00 - - - - - - -
10.12.2018 13:00:00 17,0 10,6 5 3 E 1029,2 30
10.12.2018 12:00:00 - - - - - - -
10.12.2018 11:00:00 - - - - - - -
10.12.2018 10:00:00 11,2 5,5 4 2 N 1030,5 60
10.12.2018 09:00:00 - - - - - - -
10.12.2018 08:00:00 - - - - - - -
10.12.2018 07:00:00 9,8 2,2 4 2 N 1028,5 50
10.12.2018 06:00:00 - - - - - - -
10.12.2018 05:00:00 - - - - - - -
10.12.2018 04:00:00 - - - - - - -
10.12.2018 03:00:00 - - - - - - -
10.12.2018 02:00:00 - - - - - - -
10.12.2018 01:00:00 - - - - - - -
10.12.2018 00:00:00 - - - - - - -
09.12.2018 23:00:00 - - - - - - -
09.12.2018 22:00:00 - - - - - - -
09.12.2018 21:00:00 - - - - - - -
09.12.2018 20:00:00 - - - - - - -
09.12.2018 19:00:00 17,4 13,1 16 9 WSW 1026,8 50
09.12.2018 18:00:00 - - - - - - -
09.12.2018 17:00:00 - - - - - - -
09.12.2018 16:00:00 23,0 8,7 9 5 WSW 1025,9 50
09.12.2018 15:00:00 - - - - - - -
09.12.2018 14:00:00 - - - - - - -
09.12.2018 13:00:00 20,0 7,4 8 4 S 1028,1 50
09.12.2018 12:00:00 - - - - - - -
09.12.2018 11:00:00 - - - - - - -
09.12.2018 10:00:00 9,6 8,4 4 2 N 1029,8 50
09.12.2018 09:00:00 - - - - - - -
09.12.2018 08:00:00 - - - - - - -
09.12.2018 07:00:00 7,0 6,6 5 3 WSW 1030,0 50
09.12.2018 06:00:00 - - - - - - -
09.12.2018 05:00:00 - - - - - - -
09.12.2018 04:00:00 - - - - - - -
09.12.2018 03:00:00 - - - - - - -
09.12.2018 02:00:00 - - - - - - -
09.12.2018 01:00:00 - - - - - - -
09.12.2018 00:00:00 - - - - - - -
08.12.2018 23:00:00 - - - - - - -
08.12.2018 22:00:00 - - - - - - -
08.12.2018 21:00:00 - - - - - - -
08.12.2018 20:00:00 - - - - - - -
08.12.2018 19:00:00 15,0 11,6 5 3 ENE 1027,9 20
08.12.2018 18:00:00 - - - - - - -
08.12.2018 17:00:00 - - - - - - -
08.12.2018 16:00:00 20,2 6,2 9 5 N 1026,7 20
08.12.2018 15:00:00 - - - - - - -
08.12.2018 14:00:00 - - - - - - -
08.12.2018 13:00:00 20,0 10,4 16 9 N 1027,7 20
08.12.2018 12:00:00 - - - - - - -
08.12.2018 11:00:00 - - - - - - -
08.12.2018 10:00:00 13,2 8,9 2 1 N 1028,0 20
08.12.2018 09:00:00 - - - - - - -
08.12.2018 08:00:00 - - - - - - -
08.12.2018 07:00:00 9,1 6,2 4 2 N 1026,6 20
08.12.2018 06:00:00 - - - - - - -
08.12.2018 05:00:00 - - - - - - -
08.12.2018 04:00:00 - - - - - - -
08.12.2018 03:00:00 - - - - - - -
08.12.2018 02:00:00 - - - - - - -
08.12.2018 01:00:00 - - - - - - -
08.12.2018 00:00:00 - - - - - - -
07.12.2018 23:00:00 - - - - - - -
07.12.2018 22:00:00 - - - - - - -
07.12.2018 21:00:00 - - - - - - -
07.12.2018 20:00:00 - - - - - - -
07.12.2018 19:00:00 15,9 12,8 24 13 WSW 1024,8 20
07.12.2018 18:00:00 - - - - - - -
07.12.2018 17:00:00 - - - - - - -
07.12.2018 16:00:00 20,1 11,3 15 8 SW 1025,0 40
07.12.2018 15:00:00 - - - - - - -
07.12.2018 14:00:00 - - - - - - -
07.12.2018 13:00:00 18,0 9,1 2 1 N 1026,4 20
07.12.2018 12:00:00 - - - - - - -
07.12.2018 11:00:00 - - - - - - -
07.12.2018 10:00:00 8,6 7,7 0 0 N 1028,4 6
07.12.2018 09:00:00 - - - - - - -
07.12.2018 08:00:00 - - - - - - -
07.12.2018 07:00:00 5,9 4,7 5 3 W 1027,7 50
07.12.2018 06:00:00 - - - - - - -
07.12.2018 05:00:00 - - - - - - -
07.12.2018 04:00:00 - - - - - - -
07.12.2018 03:00:00 - - - - - - -
07.12.2018 02:00:00 - - - - - - -
07.12.2018 01:00:00 - - - - - - -
07.12.2018 00:00:00 - - - - - - -
06.12.2018 23:00:00 - - - - - - -
06.12.2018 22:00:00 - - - - - - -
06.12.2018 21:00:00 - - - - - - -
06.12.2018 20:00:00 - - - - - - -
06.12.2018 19:00:00 16,8 11,3 8 4 NNE 1026,6 60
06.12.2018 18:00:00 - - - - - - -
06.12.2018 17:00:00 - - - - - - -
06.12.2018 16:00:00 23,0 9,8 11 6 ENE 1025,7 60
06.12.2018 15:00:00 - - - - - - -
06.12.2018 14:00:00 - - - - - - -
06.12.2018 13:00:00 22,0 10,2 4 2 N 1026,2 60
06.12.2018 12:00:00 - - - - - - -
06.12.2018 11:00:00 - - - - - - -
06.12.2018 10:00:00 15,4 10,0 11 6 W 1027,2 60
06.12.2018 09:00:00 - - - - - - -
06.12.2018 08:00:00 - - - - - - -
06.12.2018 07:00:00 10,8 6,9 13 7 SW 1026,6 60
06.12.2018 06:00:00 - - - - - - -
06.12.2018 05:00:00 - - - - - - -
06.12.2018 04:00:00 - - - - - - -
06.12.2018 03:00:00 - - - - - - -
06.12.2018 02:00:00 - - - - - - -
06.12.2018 01:00:00 - - - - - - -
06.12.2018 00:00:00 - - - - - - -

tt = temperature
td = dewpoint
ff = wind speed
dd = wind direction
ppp = reduced air pressure
vv = visibility

Next stations